星链-3459 (STARLINK-3459 )

导读 | 星芒AI

STARLINK-3459 是 SpaceX Starlink 卫星互联网项目中的一颗低轨卫星,属于第 12 批组网发射的“星链”卫星之一。该卫星运行在约 550 公里的近地轨道,旨在为全球用户提供高速、低延迟的宽带互联网服务。作为 Starlink 网络的重要组成部分,它支持偏远地区的网络接入,并增强整体系统的冗余与覆盖能力。该卫星采用可再生太阳能供电,具备自动避碰功能,以确保太空安全。

基本信息
目录编号:
51757
目录名称:
STARLINK-3459
国际标识:
2022-016AV
轨道中心:
EARTH
卫星名称:
星链-3459
卫星全名:
星链-3459 (STARLINK-3459 )
卫星状态:
在轨 (已飞行1398 天)
发射日期:
2022-02-21 UTC
国别 :
美国 (US)
星等 :
--
轨道信息
数据来源 国际轨道数据
星历时间: 2025-12-20T12:09:32+0800
8小时前
查看轨道信息
半长轴: 6917.904km
偏心率: 0.0001808
轨道倾角: 53.219°
近地点辐角 94.713°
升交点赤经 306.096°
平近点角 265.407°
近地点: 538.516km
远地点: 541.018km
周期: 95.438分钟
每日圈数: 15.088323
详细信息
固有亮度:
5
最大亮度:
2.5
卫星平台:
Starlink v1.5
覆盖范围:
全球
运营商:
太空探索技术公司
运营商所在国:
美国
制造商(研发单位):
太空探索技术公司
制造商所在国:
美国
使用方式:
暂无
卫星简介
星链(Starlink)计划是由太空探索技术公司(SpaceX)提出的一个巨型低轨卫星互联网星座项目,计划在2019年至2024年间在太空搭建由约1.2万颗卫星组成的“星链”网络,其中1584颗将部署在地球上空550千米处的近地轨道,并从2020年开始工作。该卫星仍在工作。
2D轨道图
3D轨道图
轨道高度分析图
轨道倾角分析图
轨道综合分析图
查看轨道综合分析图